Other Surface Observations
Issued by NWS

Current Version | Previous Version | Text Only | Print | Product List | Glossary On
Versions: 1 2 3 4 5 6 7 8 9 10 11 12 13 14 15 16 17 18 19 20 21 22 23 24 25 26 27 28 29 30 31 32 33 34 35 36 37 38 39 40 41 42 43 44 45 46 47 48 49 50
838
SXUS52 KTAE 260805
OSOTAE
OSOTAE
North Florida/South Alabama/Southwest Georgia Weather Roundup
National Weather Service Tallahassee Florida
400 AM EDT FRI MAY 26 2017

Note: "fair" indicates few or no clouds below 12,000 feet with no
significant weather and/or obstructions to visibility.

!FLZ017-115-028-034-025-260900
...North Florida...

CITY           SKY/WX    TMP DP  RH WIND       PRES   REMARKS
TALLAHASSEE    CLEAR     57  55  93 CALM      29.98R
APALACHICOLA   CLEAR     59  57  93 CALM      29.97S
PERRY          FOG       59  57  96 CALM      29.99R VSB 1
CROSS CITY     CLEAR     55  54  94 CALM      29.99R
JACKSONVILLE   CLEAR     57  55  93 SW3       29.97R
$$

!FLZ112-006-005-002-011-260900
...Florida Panhandle...

CITY           SKY/WX    TMP DP  RH WIND       PRES   REMARKS
MARIANNA       CLEAR     59  57  93 CALM      29.96S
BONIFAY        FAIR      57  57 100 CALM      29.98S
PANAMA CITY NW FAIR      58  56  93 CALM      29.96S
TYNDALL AFB    CLEAR     62  60  92 CALM      29.97S
TYND DRONE APT FAIR      62  60  94 CALM      29.97R
DE FUNIAK SPR  FAIR      58  56  92 CALM      29.97S
EGLIN AFB      CLEAR     61  57  87 CALM      29.96S
DESTIN         CLEAR     67  67 100 CALM      29.96S
HURLBURT       CLEAR     60  57  92 CALM      29.95S
CRESTVIEW      CLEAR     54  52  93 CALM      29.97S
PENSACOLA      CLEAR     69  60  73 CALM      29.95S
$$

!ALZ063-066-260900
...South Alabama...

CITY           SKY/WX    TMP DP  RH WIND       PRES   REMARKS
DOTHAN         CLEAR     59  58  96 CALM      30.00R
OZARK CAIRNS   CLEAR     57  55  92 CALM      29.96S
FT RUCKER HELI CLEAR     53  53  99 CALM      29.96S
RUCKER HELI 3  FAIR      56  55  94 CALM      29.96S
RUCKER HELI 2  FAIR      55  54  97 CALM      29.95F
FLORALA APT    CLEAR     56  53  90 CALM      29.98S
ANDALUSIA      CLEAR     58  55  90 CALM      29.96R
TROY           PTCLDY    54  54 100 CALM      29.97R
EUFALA         FAIR      53  51  93 CALM      29.96R
MOBILE         CLEAR     66  60  81 S5        29.95S
$$

!GAZ120>161-260900
...Southwest and South Central Georgia...

CITY           SKY/WX    TMP DP  RH WIND       PRES   REMARKS
THOMASVILLE    FAIR      61  61 100 CALM      29.99R
BAINBRIDGE     CLEAR     59  55  88 CALM      29.98R
MOODY AFB      PTCLDY    58  55  88 CALM      29.96R
VALDOSTA       PTCLDY    53  53 100 CALM      29.97S
MOULTRIE       CLEAR     59  55  88 CALM      29.99R
BLAKELY        CLEAR     57  54  88 CALM      29.97S
ALBANY         CLEAR     57  55  93 CALM      29.99R
TIFTON         FAIR      56  56 100 CALM      29.97R
FITZGERALD     FAIR      57  57 100 CALM      29.99S
CORDELE        FAIR      60  57  91 CALM      29.98S
AMERICUS       FAIR      55  55 100 CALM      29.99R
HOMERVILLE     FAIR     N/A N/A N/A CALM      29.98R
$$

!GMZ750-755-770-775-260900
...Coastal and Buoy Obs...

STATION/POSITION TIME  TEMP    WIND        PRES    VSBY  WAVE
                       AIR SEA DIR/SP/G                  HT/PER
                 (UTC) (F)     (DEG/KT/KT) (MB)    (MI)  (FT/S)
KEATON BEACH     0800   64      60/  2/  3 1015.1R
CEDAR KEY        0700   72     310/  4/  5 1015.4S
C TOWER          0800   74     290/  4/  5 1015.8R
APALACHICOLA BUO 0650   73 76  270/  6/  8 1015.2          3/ 7
PANAMA CITY BUOY 0650   74 77  290/  6/  8 1015.2          3/ 6
MOBILE BUOY      0750   75 77  170/ 10/ 12 1014.5F         1/ 6
ORANGE BCH AL BU 0650   75 76  210/ 10/ 12 1014.0          2/ 7
$$




USA.gov is the U.S. government's official web portal to all federal, state and local government web resources and services.